GW1454 Weather Reports


Display with metric or nautical units.
time (UTC)temp
F
wind
direction
speed
MPH
gust
MPH
rain 1hr
in
rain 24hr
in
rain mn
in
humidity
%
barometer
mb
20260904232546 81 0 0.0 4.0 0.00 0.00 0.00 64 1015.6
20260904232046 82 0 0.0 6.0 0.00 0.00 0.00 64 1015.2
20260904231604 82 269 1.0 6.0 0.00 0.00 0.00 63 1015.2
20260904231046 83 289 1.0 9.0 0.00 0.00 0.00 63 1015.2
20260904230546 83 0 2.0 9.0 0.00 0.00 0.00 63 1015.3
20260904225546 84 313 1.0 9.0 0.00 0.00 0.00 64 1015.5
20260904225048 85 234 1.0 11.0 0.00 0.00 0.00 65 1015.4
20260904224555 86 173 3.0 11.0 0.00 0.00 0.00 63 1015.4
20260904224046 88 182 3.0 9.0 0.00 0.00 0.00 61 1015.3
20260904223546 90 0 3.0 7.0 0.00 0.00 0.00 58 1015.2
20260904223056 92 179 0.0 3.0 0.00 0.00 0.00 60 1015.2
20260904222550 92 208 0.0 4.0 0.00 0.00 0.00 59 1015.0
20260904222050 92 117 1.0 6.0 0.00 0.00 0.00 58 1014.9
20260904221554 92 101 1.0 6.0 0.00 0.00 0.00 58 1014.7
20260904221046 92 111 1.0 6.0 0.00 0.00 0.00 60 1014.9
20260904220546 92 0 0.0 0.0 0.00 0.00 0.00 61 1014.7
20260904220109 91 0 0.0 3.0 0.00 0.00 0.00 62 1014.4
20260904215546 91 0 0.0 3.0 0.00 0.00 0.00 60 1014.2
20260904215049 91 76 0.0 3.0 0.00 0.00 0.00 60 1014.1
20260904214606 91 84 1.0 3.0 0.00 0.00 0.00 60 1014.1
20260904214046 91 107 0.0 3.0 0.00 0.00 0.00 60 1014.0
20260904213546 92 61 1.0 3.0 0.00 0.00 0.00 59 1014.0
20260904213109 92 0 0.0 3.0 0.00 0.00 0.00 59 1014.1
20260904212545 92 93 0.0 3.0 0.00 0.00 0.00 58 1014.2
20260904212045 93 0 0.0 0.0 0.00 0.00 0.00 58 1014.3
20260904211603 93 0 0.0 1.0 0.00 0.00 0.00 57 1014.3
20260904211046 93 0 0.0 4.0 0.00 0.00 0.00 57 1014.4
20260904210546 94 0 0.0 4.0 0.00 0.00 0.00 52 1014.6
20260904210052 95 331 0.0 3.0 0.00 0.00 0.00 50 1014.4
20260904205547 96 0 1.0 5.0 0.00 0.00 0.00 50 1014.2
20260904205046 96 105 2.0 7.0 0.00 0.00 0.00 48 1014.2
20260904204601 97 110 3.0 9.0 0.00 0.00 0.00 49 1014.2
20260904204048 97 71 2.0 9.0 0.00 0.00 0.00 47 1014.2
20260904203546 97 23 3.0 9.0 0.00 0.00 0.00 48 1014.1
20260904203057 97 0 1.0 7.0 0.00 0.00 0.00 49 1014.0
20260904202547 97 108 2.0 7.0 0.00 0.00 0.00 48 1014.0
20260904202045 97 167 3.0 5.0 0.00 0.00 0.00 47 1014.0
20260904201555 97 88 0.0 4.0 0.00 0.00 0.00 48 1014.1
20260904201046 97 107 2.0 4.0 0.00 0.00 0.00 47 1014.2
20260904200546 98 30 1.0 10.0 0.00 0.00 0.00 47 1014.2
20260904200108 97 115 1.0 10.0 0.00 0.00 0.00 48 1014.3
20260904195546 97 163 3.0 10.0 0.00 0.00 0.00 49 1014.5
20260904195049 97 130 1.0 7.0 0.00 0.00 0.00 49 1014.5
20260904194631 97 46 1.0 6.0 0.00 0.00 0.00 49 1014.6
20260904194046 96 109 2.0 5.0 0.00 0.00 0.00 49 1014.6
20260904193546 96 45 2.0 5.0 0.00 0.00 0.00 49 1014.6
20260904193107 97 0 2.0 6.0 0.00 0.00 0.00 48 1015.0
20260904192549 97 150 2.0 6.0 0.00 0.00 0.00 50 1015.2
20260904192045 97 63 2.0 6.0 0.00 0.00 0.00 51 1015.3
20260904191603 96 194 1.0 4.0 0.00 0.00 0.00 49 1015.3
20260904191047 96 47 2.0 6.0 0.00 0.00 0.00 49 1015.3
20260904190546 96 113 2.0 6.0 0.00 0.00 0.00 49 1015.3
20260904190103 96 134 2.0 4.0 0.00 0.00 0.00 50 1015.4
20260904185546 96 123 1.0 6.0 0.00 0.00 0.00 49 1015.5
20260904185046 96 123 1.0 6.0 0.00 0.00 0.00 48 1015.6
20260904184604 96 81 2.0 6.0 0.00 0.00 0.00 47 1015.8
20260904184046 96 103 2.0 6.0 0.00 0.00 0.00 51 1015.8
20260904183546 96 0 0.0 6.0 0.00 0.00 0.00 49 1015.8
20260904183117 96 0 1.0 6.0 0.00 0.00 0.00 50 1016.0
20260904182545 96 190 1.0 4.0 0.00 0.00 0.00 51 1016.1
20260904182046 95 113 1.0 3.0 0.00 0.00 0.00 51 1016.1
20260904181611 95 0 1.0 3.0 0.00 0.00 0.00 50 1016.1
20260904181046 95 205 1.0 3.0 0.00 0.00 0.00 50 1016.3
20260904180548 95 204 1.0 9.0 0.00 0.00 0.00 49 1016.3
20260904180058 95 0 2.0 9.0 0.00 0.00 0.00 50 1016.4
20260904175549 95 27 1.0 5.0 0.00 0.00 0.00 50 1016.4
20260904175046 96 261 2.0 5.0 0.00 0.00 0.00 48 1016.4
20260904174605 95 23 2.0 5.0 0.00 0.00 0.00 50 1016.5
20260904174045 96 76 1.0 4.0 0.00 0.00 0.00 52 1016.5
20260904173546 95 102 2.0 4.0 0.00 0.00 0.00 50 1016.7
20260904173104 95 101 2.0 4.0 0.00 0.00 0.00 51 1016.7
20260904172546 95 82 1.0 4.0 0.00 0.00 0.00 53 1016.6
20260904172046 94 322 1.0 6.0 0.00 0.00 0.00 53 1016.7
20260904171620 94 90 2.0 6.0 0.00 0.00 0.00 53 1016.8
20260904171046 94 228 1.0 6.0 0.00 0.00 0.00 54 1016.8
20260904170546 94 284 1.0 6.0 0.00 0.00 0.00 54 1016.8
20260904170057 94 287 1.0 4.0 0.00 0.00 0.00 57 1016.8
20260904165546 94 86 2.0 4.0 0.00 0.00 0.00 57 1017.0
20260904165046 93 109 1.0 4.0 0.00 0.00 0.00 62 1017.1
20260904164609 93 138 1.0 4.0 0.00 0.00 0.00 60 1017.1
20260904164046 92 90 2.0 4.0 0.00 0.00 0.00 63 1017.2
20260904163546 93 248 1.0 4.0 0.00 0.00 0.00 61 1017.2
20260904163101 92 143 0.0 4.0 0.00 0.00 0.00 62 1017.3
20260904162550 92 122 2.0 4.0 0.00 0.00 0.00 60 1017.4
20260904162047 92 133 2.0 4.0 0.00 0.00 0.00 62 1017.5
20260904161600 91 0 2.0 7.0 0.00 0.00 0.00 64 1017.6
20260904161046 91 38 1.0 7.0 0.00 0.00 0.00 65 1017.6
20260904160546 91 119 0.0 6.0 0.00 0.00 0.00 66 1017.6
20260904160057 90 119 1.0 6.0 0.00 0.00 0.00 67 1017.6
20260904155546 90 138 2.0 6.0 0.00 0.00 0.00 66 1017.7
20260904155045 90 93 2.0 6.0 0.00 0.00 0.00 66 1017.7
20260904154556 90 132 0.0 4.0 0.00 0.00 0.00 66 1017.8
20260904154047 90 103 1.0 5.0 0.00 0.00 0.00 68 1017.7
20260904153546 89 36 0.0 6.0 0.00 0.00 0.00 70 1017.7
20260904153104 89 155 1.0 6.0 0.00 0.00 0.00 69 1017.7
20260904152547 89 113 2.0 6.0 0.00 0.00 0.00 69 1017.7
20260904152048 89 52 0.0 4.0 0.00 0.00 0.00 69 1017.7
20260904151605 89 148 1.0 4.0 0.00 0.00 0.00 70 1017.8
20260904151046 88 0 0.0 4.0 0.00 0.00 0.00 72 1017.8
20260904150547 88 161 1.0 4.0 0.00 0.00 0.00 71 1017.8
20260904150057 88 161 1.0 5.0 0.00 0.00 0.00 71 1017.8
20260904145547 87 103 1.0 5.0 0.00 0.00 0.00 72 1017.8
20260904145046 87 0 2.0 4.0 0.00 0.00 0.00 71 1017.9
20260904144555 87 148 1.0 3.0 0.00 0.00 0.00 72 1018.0
20260904144045 86 107 0.0 7.0 0.00 0.00 0.00 75 1017.8
20260904143550 86 73 1.0 7.0 0.00 0.00 0.00 75 1018.0
20260904143133 85 92 2.0 5.0 0.00 0.00 0.00 75 1018.0
20260904142544 85 114 2.0 7.0 0.00 0.00 0.00 74 1018.0
20260904142046 85 91 1.0 7.0 0.00 0.00 0.00 76 1018.0
20260904141610 85 67 2.0 6.0 0.00 0.00 0.00 76 1018.0
20260904141044 85 53 2.0 4.0 0.00 0.00 0.00 76 1018.0
20260904140546 84 88 1.0 5.0 0.00 0.00 0.00 77 1017.9
20260904140100 84 150 0.0 5.0 0.00 0.00 0.00 78 1018.0
20260904135545 83 96 2.0 5.0 0.00 0.00 0.00 77 1018.0
20260904135047 83 120 1.0 5.0 0.00 0.00 0.00 78 1017.9
20260904134600 83 65 2.0 5.0 0.00 0.00 0.00 78 1017.8
20260904134048 82 28 2.0 6.0 0.00 0.00 0.00 79 1017.9
20260904133544 82 0 3.0 6.0 0.00 0.00 0.00 80 1017.8
20260904133056 82 125 1.0 6.0 0.00 0.00 0.00 79 1017.9
20260904132545 81 0 1.0 6.0 0.00 0.00 0.00 80 1017.9
20260904132044 81 0 1.0 5.0 0.00 0.00 0.00 81 1018.0
20260904131616 81 142 1.0 5.0 0.00 0.00 0.00 81 1018.1
20260904131044 81 141 1.0 4.0 0.00 0.00 0.00 81 1018.2
20260904130544 80 0 1.0 4.0 0.00 0.00 0.00 83 1018.1
20260904130059 80 136 0.0 4.0 0.00 0.00 0.00 83 1017.9
20260904125544 80 123 1.0 4.0 0.00 0.00 0.00 85 1017.8
20260904125047 79 0 1.0 4.0 0.00 0.00 0.00 85 1017.8
20260904124605 79 95 1.0 4.0 0.00 0.00 0.00 85 1017.9
20260904124044 78 109 1.0 3.0 0.00 0.00 0.00 85 1018.1
20260904123544 78 116 0.0 2.0 0.00 0.00 0.00 86 1018.0
20260904123104 78 0 0.0 2.0 0.00 0.00 0.00 88 1018.1
20260904122544 77 93 0.0 2.0 0.00 0.00 0.00 88 1018.0
20260904122044 76 0 0.0 2.0 0.00 0.00 0.00 89 1017.9
20260904121604 76 94 0.0 2.0 0.00 0.00 0.00 90 1017.9
20260904121047 75 0 0.0 0.0 0.00 0.00 0.00 92 1017.8
20260904120545 75 0 0.0 1.0 0.00 0.00 0.00 93 1017.8
20260904120115 74 0 0.0 1.0 0.00 0.00 0.00 94 1017.9
20260904115546 73 0 0.0 0.0 0.00 0.00 0.00 95 1017.8
20260904115044 73 0 0.0 0.0 0.00 0.00 0.00 96 1017.8
20260904114607 72 0 0.0 0.0 0.00 0.00 0.00 96 1017.8
20260904114045 72 0 0.0 0.0 0.00 0.00 0.00 97 1017.8
20260904113545 71 0 0.0 0.0 0.00 0.00 0.00 96 1017.7
20260904113108 71 0 0.0 0.0 0.00 0.00 0.00 96 1017.6
20260904112548 71 0 0.0 0.0 0.00 0.00 0.00 96 1017.7
20260904112046 71 0 0.0 0.0 0.00 0.00 0.00 96 1017.6
20260904111607 70 0 0.0 0.0 0.00 0.00 0.00 95 1017.5
20260904111050 70 0 0.0 0.0 0.00 0.00 0.00 95 1017.4
20260904110546 70 0 0.0 0.0 0.00 0.00 0.00 95 1017.4
20260904110108 71 0 0.0 0.0 0.00 0.00 0.00 95 1017.4
20260904105547 71 0 0.0 0.0 0.00 0.00 0.00 95 1017.5
20260904105050 71 0 0.0 0.0 0.00 0.00 0.00 95 1017.5
20260904104559 71 0 0.0 0.0 0.00 0.00 0.00 95 1017.4
20260904104046 71 0 0.0 0.0 0.00 0.00 0.00 95 1017.4
20260904103547 71 0 0.0 0.0 0.00 0.00 0.00 95 1017.4
20260904103107 71 0 0.0 0.0 0.00 0.00 0.00 95 1017.3
20260904102547 71 0 0.0 0.0 0.00 0.00 0.00 95 1017.3
20260904102044 71 0 0.0 0.0 0.00 0.00 0.00 94 1017.4
20260904101603 71 0 0.0 0.0 0.00 0.00 0.00 95 1017.4
20260904101049 71 0 0.0 0.0 0.00 0.00 0.00 95 1017.4
20260904100545 71 0 0.0 0.0 0.00 0.00 0.00 94 1017.3
20260904095545 71 0 0.0 0.0 0.00 0.00 0.00 94 1017.3
20260904095045 71 0 0.0 0.0 0.00 0.00 0.00 94 1017.3
20260904094601 71 0 0.0 0.0 0.00 0.00 0.00 93 1017.2
20260904094047 71 0 0.0 0.0 0.00 0.00 0.00 94 1017.2
20260904093545 72 0 0.0 0.0 0.00 0.00 0.00 93 1017.1
20260904093100 72 0 0.0 0.0 0.00 0.00 0.00 93 1017.2
20260904092545 72 0 0.0 0.0 0.00 0.00 0.00 93 1017.1
20260904092045 72 0 0.0 0.0 0.00 0.00 0.00 93 1017.1
20260904091601 72 0 0.0 0.0 0.00 0.00 0.00 93 1017.0
20260904091045 72 0 0.0 0.0 0.00 0.00 0.00 93 1016.8
20260904090544 72 0 0.0 0.0 0.00 0.00 0.00 94 1016.8
20260904090104 72 0 0.0 0.0 0.00 0.00 0.00 94 1016.7
20260904085547 72 0 0.0 0.0 0.00 0.00 0.00 93 1016.6
20260904085046 72 0 0.0 0.0 0.00 0.00 0.00 92 1016.5
20260904084555 72 0 0.0 0.0 0.00 0.00 0.00 93 1016.5
20260904084044 73 0 0.0 0.0 0.00 0.00 0.00 93 1016.5
20260904083545 73 0 0.0 0.0 0.00 0.00 0.00 93 1016.5
20260904083101 73 0 0.0 0.0 0.00 0.00 0.00 93 1016.5
20260904082548 73 0 0.0 0.0 0.00 0.00 0.00 92 1016.5
20260904082044 73 0 0.0 0.0 0.00 0.00 0.00 92 1016.3
20260904081556 73 0 0.0 0.0 0.00 0.00 0.00 92 1016.3
20260904081044 73 0 0.0 0.0 0.00 0.00 0.00 92 1016.3
20260904080544 73 0 0.0 0.0 0.00 0.00 0.00 92 1016.4
20260904080104 73 0 0.0 0.0 0.00 0.00 0.00 92 1016.4
20260904075545 73 0 0.0 0.0 0.00 0.00 0.00 92 1016.5
20260904075045 73 0 0.0 0.0 0.00 0.00 0.00 92 1016.5
20260904074607 73 0 0.0 0.0 0.00 0.00 0.00 92 1016.6
20260904074045 73 0 0.0 0.0 0.00 0.00 0.00 92 1016.6
20260904073547 73 0 0.0 0.0 0.00 0.00 0.00 92 1016.6
20260904073056 73 0 0.0 0.0 0.00 0.00 0.00 92 1016.6
20260904072543 73 0 0.0 0.0 0.00 0.00 0.00 92 1016.6
20260904072044 73 0 0.0 0.0 0.00 0.00 0.00 92 1016.5
20260904071606 73 0 0.0 0.0 0.00 0.00 0.00 92 1016.7
20260904071045 73 0 0.0 0.0 0.00 0.00 0.00 92 1016.8
20260904070549 74 0 0.0 0.0 0.00 0.00 0.00 92 1016.9
20260904070104 74 0 0.0 0.0 0.00 0.00 0.00 92 1017.0
20260904065544 74 0 0.0 0.0 0.00 0.00 0.00 92 1016.9
20260904065044 73 0 0.0 0.0 0.00 0.00 0.00 92 1016.9
20260904064600 73 0 0.0 0.0 0.00 0.00 0.00 92 1017.1
20260904064046 74 0 0.0 0.0 0.00 0.00 0.00 91 1017.3
20260904063545 74 0 0.0 0.0 0.00 0.00 0.00 91 1017.2
20260904063057 74 0 0.0 0.0 0.00 0.00 0.00 91 1017.3
20260904062544 74 0 0.0 0.0 0.00 0.00 0.00 91 1017.4
20260904062044 74 0 0.0 0.0 0.00 0.00 0.00 91 1017.4
20260904061552 74 0 0.0 0.0 0.00 0.00 0.00 91 1017.4
20260904061046 74 0 0.0 0.0 0.00 0.00 0.00 91 1017.5
20260904060545 74 0 0.0 0.0 0.00 0.00 0.00 91 1017.5
20260904055544 74 0 0.0 0.0 0.00 0.00 0.00 90 1017.7
20260904055044 74 0 0.0 0.0 0.00 0.00 0.00 90 1017.7
20260904054557 75 0 0.0 0.0 0.00 0.00 0.00 90 1017.9
20260904054046 75 0 0.0 0.0 0.00 0.00 0.00 90 1018.0
20260904053545 75 0 0.0 0.0 0.00 0.00 0.00 90 1017.8
20260904053105 75 0 0.0 0.0 0.00 0.00 0.00 90 1017.9
20260904052545 75 0 0.0 0.0 0.00 0.00 0.00 90 1017.9
20260904052045 75 0 0.0 0.0 0.00 0.00 0.00 90 1018.0
20260904051555 75 0 0.0 0.0 0.00 0.00 0.00 90 1018.1
20260904051044 74 0 0.0 0.0 0.00 0.00 0.00 90 1018.0
20260904050544 74 0 0.0 0.0 0.00 0.00 0.00 90 1018.1
20260904045545 75 0 0.0 0.0 0.00 0.00 0.00 90 1018.2
20260904045045 75 0 0.0 0.0 0.00 0.00 0.00 89 1018.2
20260904044557 75 0 0.0 0.0 0.00 0.00 0.00 90 1018.2
20260904044049 75 0 0.0 0.0 0.00 0.00 0.00 89 1018.1
20260904043544 75 0 0.0 0.0 0.00 0.00 0.00 89 1018.1
20260904043105 75 0 0.0 0.0 0.00 0.00 0.00 89 1018.1
20260904042549 75 0 0.0 0.0 0.00 0.00 0.00 89 1018.0
20260904042045 75 0 0.0 0.0 0.00 0.00 0.00 89 1017.9
20260904041558 75 0 0.0 1.0 0.00 0.00 0.00 89 1017.9
20260904041044 75 0 0.0 1.0 0.00 0.00 0.00 89 1017.8
20260904040545 75 0 0.0 0.0 0.00 0.00 0.00 89 1017.8
20260904040108 75 0 0.0 0.0 0.00 0.00 0.00 89 1017.8
20260904035545 75 0 0.0 0.0 0.00 0.00 0.00 89 1017.8
20260904035044 75 0 0.0 0.0 0.00 0.00 0.00 88 1017.9
20260904034551 75 0 0.0 0.0 0.00 0.00 0.00 88 1017.8
20260904034045 76 0 0.0 0.0 0.00 0.00 0.00 88 1017.8
20260904033545 76 0 0.0 0.0 0.00 0.00 0.00 88 1017.8
20260904033102 76 0 0.0 0.0 0.00 0.00 0.00 88 1017.9
20260904032545 76 0 0.0 0.0 0.00 0.00 0.00 88 1017.8
20260904032044 76 0 0.0 0.0 0.00 0.00 0.00 87 1017.9
20260904031556 76 0 0.0 0.0 0.00 0.00 0.00 87 1018.0
20260904031044 76 0 0.0 0.0 0.00 0.00 0.00 87 1017.9
20260904030545 76 0 0.0 0.0 0.00 0.00 0.00 87 1017.9
20260904030105 76 0 0.0 0.0 0.00 0.00 0.00 88 1017.9
20260904025544 76 0 0.0 0.0 0.00 0.00 0.00 87 1017.9
20260904025044 76 0 0.0 0.0 0.00 0.00 0.00 87 1017.9
20260904024608 76 0 0.0 0.0 0.00 0.00 0.00 87 1017.9
20260904024044 77 0 0.0 0.0 0.00 0.00 0.00 86 1017.7
20260904023546 77 0 0.0 0.0 0.00 0.00 0.00 86 1017.9
20260904023058 77 0 0.0 0.0 0.00 0.00 0.00 86 1018.0
20260904022545 77 0 0.0 0.0 0.00 0.00 0.00 86 1018.0
20260904022045 77 0 0.0 0.0 0.00 0.00 0.00 85 1018.0
20260904021556 77 0 0.0 0.0 0.00 0.00 0.00 85 1018.1
20260904021044 78 0 0.0 0.0 0.00 0.00 0.00 84 1018.0
20260904020547 78 0 0.0 0.0 0.00 0.00 0.00 84 1018.1
20260904020109 78 0 0.0 0.0 0.00 0.00 0.00 84 1018.0
20260904015544 78 0 0.0 0.0 0.00 0.00 0.00 84 1018.0
20260904015044 78 0 0.0 0.0 0.00 0.00 0.00 84 1017.9
20260904014605 78 0 0.0 0.0 0.00 0.00 0.00 85 1017.9
20260904014044 78 0 0.0 0.0 0.00 0.00 0.00 84 1017.8
20260904013549 78 0 0.0 0.0 0.00 0.00 0.00 83 1017.9
20260904013103 78 0 0.0 0.0 0.00 0.00 0.00 83 1017.9
20260904012545 78 0 0.0 0.0 0.00 0.00 0.00 83 1017.8
20260904012045 79 0 0.0 0.0 0.00 0.00 0.00 83 1017.7
20260904011605 79 0 0.0 0.0 0.00 0.00 0.00 84 1017.6
20260904011044 79 0 0.0 0.0 0.00 0.00 0.00 84 1017.5
20260904010545 79 0 0.0 0.0 0.00 0.00 0.00 84 1017.4
20260904005544 79 0 0.0 0.0 0.00 0.00 0.00 83 1017.2
20260904005115 80 0 0.0 0.0 0.00 0.00 0.00 82 1017.2
20260904004558 80 0 0.0 0.0 0.00 0.00 0.00 83 1017.2
20260904004045 80 0 0.0 0.0 0.00 0.00 0.00 82 1017.0
20260904003544 80 0 0.0 0.0 0.00 0.00 0.00 81 1017.0
20260904003055 80 0 0.0 0.0 0.00 0.00 0.00 80 1016.8
20260904002545 81 0 0.0 0.0 0.00 0.00 0.00 81 1016.7
20260904002046 81 0 0.0 0.0 0.00 0.00 0.00 79 1016.8
20260904001607 81 0 0.0 0.0 0.00 0.00 0.00 80 1016.8
20260904001046 82 0 0.0 0.0 0.00 0.00 0.00 79 1016.8
20260904000544 82 0 0.0 0.0 0.00 0.00 0.00 79 1016.6
20260904000105 82 0 0.0 0.0 0.00 0.00 0.00 79 1016.5
20260903235543 83 0 0.0 0.0 0.00 0.00 0.00 78 1016.4
20260903235045 83 0 0.0 0.0 0.00 0.00 0.00 77 1016.4
20260903234558 83 0 0.0 0.0 0.00 0.00 0.00 77 1016.5
20260903234049 84 0 0.0 0.0 0.00 0.00 0.00 76 1016.4
20260903233545 84 0 0.0 2.0 0.00 0.00 0.00 76 1016.2
20260903233055 85 0 0.0 2.0 0.00 0.00 0.00 74 1016.1